SM5RVH-10 Weather Reports


time (UTC)temp
C
wind
direction
speed
KPH
gust
KPH
rain 1hr
cm
rain 24hr
cm
rain mn
cm
humidity
%
barometer
mb
20260906091003 16 252 4.8 12.9 0.00 0.23 0.03 100 1015.2
20260906090503 16 258 3.2 12.9 0.00 0.23 0.03 100 1015.2
20260906090004 16 258 3.2 11.3 0.00 0.23 0.03 100 1015.1
20260906085503 16 257 3.2 11.3 0.00 0.23 0.03 100 1015.1
20260906085003 16 255 3.2 16.1 0.00 0.23 0.03 100 1015.0
20260906084503 15 255 4.8 16.1 0.00 0.23 0.03 100 1015.0
20260906084003 15 255 4.8 11.3 0.00 0.23 0.03 100 1015.0
20260906083503 15 252 4.8 11.3 0.00 0.23 0.03 100 1014.9
20260906083003 14 249 1.6 11.3 0.00 0.23 0.03 100 1014.9
20260906082503 14 248 1.6 12.9 0.00 0.23 0.03 100 1014.9
20260906082024 13 249 3.2 12.9 0.00 0.23 0.03 100 1014.9
20260906081503 13 251 1.6 8.0 0.00 0.23 0.03 100 1014.8
20260906081003 13 251 1.6 6.4 0.00 0.23 0.03 100 1014.8
20260906080503 13 251 1.6 11.3 0.00 0.23 0.03 100 1014.7
20260906080003 12 251 1.6 11.3 0.00 0.23 0.03 100 1014.6
20260906075503 12 251 1.6 6.4 0.00 0.23 0.03 100 1014.6
20260906075004 12 251 3.2 11.3 0.00 0.23 0.03 100 1014.5
20260906074503 12 250 3.2 11.3 0.00 0.23 0.03 100 1014.4
20260906074003 12 249 3.2 8.0 0.00 0.23 0.03 100 1014.4
20260906073503 12 248 3.2 11.3 0.00 0.23 0.03 100 1014.3
20260906073003 11 247 3.2 11.3 0.00 0.23 0.03 100 1014.3
20260906072503 11 247 1.6 6.4 0.00 0.23 0.03 100 1014.3
20260906072003 11 247 1.6 4.8 0.00 0.23 0.03 100 1014.1
20260906071503 11 247 1.6 8.0 0.00 0.23 0.03 100 1014.1
20260906071003 11 248 3.2 8.0 0.00 0.23 0.03 100 1014.1
20260906070503 11 249 1.6 8.0 0.00 0.23 0.03 100 1014.0
20260906070024 11 250 1.6 8.0 0.00 0.23 0.03 100 1013.9
20260906065524 11 250 0.0 3.2 0.00 0.23 0.03 100 1013.9
20260906065003 11 250 1.6 4.8 0.00 0.23 0.03 100 1013.8
20260906064503 11 250 1.6 3.2 0.00 0.23 0.03 100 1013.8
20260906064003 11 250 1.6 3.2 0.00 0.23 0.03 100 1013.8
20260906063503 10 250 1.6 3.2 0.00 0.23 0.03 100 1013.8
20260906063003 10 260 1.6 8.0 0.00 0.23 0.03 100 1013.7
20260906062503 10 268 1.6 8.0 0.00 0.23 0.03 100 1013.8
20260906062003 10 286 1.6 3.2 0.00 0.23 0.03 100 1013.8
20260906061503 10 286 1.6 3.2 0.00 0.23 0.03 100 1013.8
20260906061003 10 286 0.0 3.2 0.00 0.23 0.03 100 1013.7
20260906060503 10 286 0.0 4.8 0.00 0.23 0.03 100 1013.7
20260906060003 10 286 1.6 4.8 0.00 0.23 0.03 100 1013.6
20260906055524 10 287 1.6 4.8 0.00 0.23 0.03 100 1013.5
20260906055003 10 294 1.6 6.4 0.00 0.23 0.03 100 1013.5
20260906054524 10 300 1.6 6.4 0.00 0.23 0.03 100 1013.5
20260906054024 9 305 1.6 6.4 0.00 0.23 0.03 100 1013.6
20260906053524 9 306 0.0 4.8 0.00 0.23 0.03 100 1013.4
20260906053024 8 0 0.0 0.0 0.00 0.23 0.03 100 1013.3
20260906052503 8 0 0.0 0.0 0.00 0.23 0.03 100 1013.1
20260906052003 8 0 0.0 0.0 0.00 0.23 0.03 100 1013.2
20260906051503 8 0 0.0 0.0 0.00 0.23 0.03 100 1013.1
20260906051024 8 0 0.0 0.0 0.00 0.23 0.03 100 1013.0
20260906050524 8 0 0.0 0.0 0.00 0.23 0.03 100 1012.9
20260906050003 8 306 0.0 1.6 0.00 0.23 0.03 100 1012.9
20260906045503 8 306 0.0 1.6 0.00 0.23 0.03 100 1012.9
20260906045003 8 306 0.0 1.6 0.00 0.23 0.03 100 1012.8
20260906044503 8 306 0.0 1.6 0.00 0.23 0.03 100 1012.8
20260906044024 8 306 0.0 1.6 0.00 0.23 0.03 100 1012.7
20260906043524 8 306 0.0 1.6 0.00 0.23 0.03 100 1012.6
20260906043003 8 306 0.0 1.6 0.00 0.23 0.03 100 1012.5
20260906042503 8 306 0.0 1.6 0.00 0.23 0.03 100 1012.4
20260906042003 8 306 0.0 1.6 0.00 0.23 0.03 100 1012.4
20260906041503 8 306 0.0 1.6 0.00 0.23 0.03 100 1012.3
20260906041003 8 306 0.0 1.6 0.00 0.23 0.03 100 1012.2
20260906040503 8 306 0.0 1.6 0.00 0.23 0.03 100 1012.2
20260906040003 8 306 0.0 1.6 0.00 0.23 0.03 100 1012.3
20260906035503 8 0 0.0 0.0 0.00 0.23 0.03 100 1012.2
20260906035003 8 306 0.0 1.6 0.00 0.23 0.03 100 1012.1
20260906034503 8 306 0.0 1.6 0.00 0.23 0.03 100 1012.0
20260906034003 8 306 0.0 1.6 0.00 0.23 0.03 100 1012.0
20260906033503 8 306 0.0 3.2 0.00 0.23 0.03 100 1011.8
20260906033003 8 306 0.0 3.2 0.00 0.23 0.03 100 1011.9
20260906032524 8 306 0.0 1.6 0.00 0.23 0.03 100 1011.9
20260906032003 8 306 0.0 1.6 0.00 0.23 0.03 100 1011.8
20260906031503 8 306 0.0 1.6 0.00 0.23 0.03 100 1011.8
20260906031003 8 306 0.0 1.6 0.00 0.23 0.03 100 1011.7
20260906030503 8 306 0.0 3.2 0.00 0.23 0.03 100 1011.7
20260906030003 8 306 0.0 3.2 0.00 0.23 0.03 100 1011.6
20260906025503 8 0 0.0 0.0 0.00 0.23 0.03 100 1011.6
20260906025003 8 306 0.0 1.6 0.03 0.23 0.03 100 1011.5
20260906024503 8 306 0.0 1.6 0.03 0.23 0.03 100 1011.5
20260906024003 8 306 0.0 1.6 0.03 0.23 0.03 100 1011.4
20260906023503 9 306 0.0 1.6 0.03 0.23 0.03 100 1011.3
20260906023003 9 306 0.0 1.6 0.03 0.23 0.03 100 1011.2
20260906022503 9 306 0.0 1.6 0.03 0.23 0.03 100 1011.2
20260906022003 9 306 0.0 1.6 0.03 0.23 0.03 100 1011.1
20260906021524 9 306 0.0 1.6 0.03 0.23 0.03 100 1011.0
20260906021003 9 306 0.0 1.6 0.03 0.23 0.03 100 1010.9
20260906020503 9 306 0.0 1.6 0.03 0.23 0.03 100 1010.9
20260906020024 9 306 0.0 3.2 0.03 0.23 0.03 100 1010.8
20260906015503 9 306 0.0 3.2 0.03 0.23 0.03 100 1010.7
20260906015003 9 306 0.0 3.2 0.00 0.20 0.00 100 1010.6
20260906014503 9 306 0.0 1.6 0.00 0.20 0.00 100 1010.6
20260906014003 9 306 0.0 1.6 0.00 0.20 0.00 100 1010.5
20260906013503 9 0 0.0 0.0 0.00 0.20 0.00 100 1010.5
20260906013003 9 0 0.0 0.0 0.00 0.20 0.00 100 1010.4
20260906012503 9 306 0.0 1.6 0.00 0.20 0.00 100 1010.4
20260906012003 9 306 0.0 1.6 0.00 0.20 0.00 100 1010.2
20260906011503 9 306 0.0 1.6 0.00 0.20 0.00 100 1010.2
20260906011003 9 306 0.0 1.6 0.00 0.20 0.00 100 1010.1
20260906010503 9 306 0.0 4.8 0.00 0.20 0.00 100 1010.0
20260906010003 9 306 0.0 4.8 0.00 0.20 0.00 100 1010.0
20260906005524 9 306 0.0 3.2 0.00 0.20 0.00 100 1010.0
20260906005024 9 0 0.0 0.0 0.00 0.20 0.00 100 1010.0
20260906004503 9 0 0.0 0.0 0.00 0.20 0.00 100 1009.9
20260906004024 9 0 0.0 0.0 0.00 0.20 0.00 100 1009.8
20260906003503 9 0 0.0 0.0 0.00 0.20 0.00 100 1009.8
20260906003003 9 0 0.0 0.0 0.00 0.20 0.00 100 1009.7
20260906002503 9 0 0.0 0.0 0.00 0.20 0.00 100 1009.7
20260906002025 9 0 0.0 0.0 0.00 0.20 0.00 100 1009.6
20260906001504 9 0 0.0 0.0 0.00 0.23 0.00 100 1009.5
20260906001004 9 0 0.0 0.0 0.00 0.23 0.00 100 1009.5
20260906000504 9 308 0.0 1.6 0.00 0.23 0.00 100 1009.4
20260906000004 9 308 0.0 1.6 0.00 0.23 0.00 100 1009.2
20260905235504 9 0 0.0 0.0 0.00 0.23 0.00 100 1009.2
20260905235004 9 0 0.0 0.0 0.00 0.23 0.00 100 1009.1
20260905234504 9 308 0.0 1.6 0.00 0.23 0.00 100 1009.0
20260905234004 9 308 0.0 1.6 0.00 0.23 0.00 100 1008.9
20260905233504 9 308 0.0 1.6 0.00 0.23 0.00 100 1008.8
20260905233004 9 308 0.0 1.6 0.00 0.23 0.00 100 1008.8
20260905232525 9 308 0.0 1.6 0.00 0.23 0.00 100 1008.8
20260905232004 9 308 0.0 1.6 0.00 0.23 0.00 100 1008.7
20260905231525 9 308 0.0 1.6 0.00 0.23 0.00 100 1008.7
20260905231004 9 308 0.0 1.6 0.00 0.23 0.00 100 1008.6
20260905230525 9 308 0.0 1.6 0.00 0.23 0.00 100 1008.5
20260905230004 9 308 0.0 1.6 0.00 0.23 0.00 100 1008.5
20260905225504 9 308 0.0 1.6 0.00 0.23 0.00 100 1008.4
20260905225004 9 308 0.0 1.6 0.00 0.23 0.00 100 1008.4
20260905224504 9 308 0.0 1.6 0.00 0.23 0.00 100 1008.3
20260905224004 9 308 0.0 1.6 0.00 0.23 0.00 100 1008.1
20260905223504 9 308 0.0 1.6 0.00 0.23 0.00 100 1008.0
20260905223004 9 308 0.0 1.6 0.00 0.23 0.00 100 1008.0
20260905222504 9 308 0.0 1.6 0.00 0.23 0.00 100 1007.9
20260905222004 9 0 0.0 0.0 0.00 0.23 0.00 100 1007.9
20260905221504 9 308 0.0 1.6 0.00 0.23 0.00 100 1007.8
20260905221004 9 308 0.0 1.6 0.00 0.23 0.00 100 1007.8
20260905220504 9 0 0.0 0.0 0.00 0.23 0.00 100 1007.7
20260905220025 9 0 0.0 0.0 0.00 0.23 0.00 100 1007.7
20260905215525 9 0 0.0 0.0 0.00 0.23 0.23 100 1007.5
20260905215004 9 0 0.0 0.0 0.00 0.23 0.23 100 1007.5
20260905214504 9 0 0.0 0.0 0.00 0.23 0.23 100 1007.4
20260905214025 9 0 0.0 0.0 0.00 0.23 0.23 100 1007.4
20260905213504 9 0 0.0 0.0 0.00 0.23 0.23 100 1007.3
20260905213004 9 0 0.0 0.0 0.00 0.23 0.23 100 1007.2
20260905212525 9 0 0.0 0.0 0.00 0.23 0.23 100 1007.1
20260905212025 9 0 0.0 0.0 0.00 0.23 0.23 100 1007.0
20260905211525 9 0 0.0 0.0 0.00 0.23 0.23 100 1006.9
20260905211025 8 0 0.0 0.0 0.00 0.23 0.23 100 1006.9
20260905210504 8 0 0.0 0.0 0.00 0.23 0.23 100 1006.9
20260905210004 8 0 0.0 0.0 0.00 0.23 0.23 100 1006.7
20260905205504 8 0 0.0 0.0 0.00 0.23 0.23 100 1006.6
20260905205004 8 0 0.0 0.0 0.00 0.23 0.23 100 1006.5
20260905204504 8 306 0.0 1.6 0.00 0.23 0.23 100 1006.5
20260905204025 8 306 0.0 1.6 0.00 0.23 0.23 100 1006.5
20260905203504 8 306 0.0 1.6 0.00 0.23 0.23 100 1006.3
20260905203004 8 0 0.0 0.0 0.00 0.23 0.23 100 1006.3
20260905202504 8 0 0.0 0.0 0.00 0.23 0.23 100 1006.1
20260905202004 8 306 0.0 1.6 0.03 0.23 0.23 100 1006.2
20260905201504 8 306 0.0 1.6 0.03 0.23 0.23 100 1006.2
20260905201004 8 0 0.0 0.0 0.03 0.23 0.23 100 1006.0
20260905200525 8 0 0.0 0.0 0.03 0.23 0.23 100 1006.0
20260905200004 9 0 0.0 0.0 0.03 0.23 0.23 100 1005.9
20260905195504 9 306 0.0 1.6 0.03 0.23 0.23 100 1005.9
20260905195004 9 306 0.0 1.6 0.03 0.23 0.23 100 1005.7
20260905194525 9 0 0.0 0.0 0.03 0.23 0.23 100 1005.7
20260905194004 9 0 0.0 0.0 0.03 0.23 0.23 100 1005.6
20260905193504 9 0 0.0 0.0 0.03 0.23 0.23 100 1005.7
20260905193004 9 0 0.0 0.0 0.03 0.23 0.23 100 1005.6
20260905192504 9 0 0.0 0.0 0.03 0.23 0.23 100 1005.6
20260905192004 9 0 0.0 0.0 0.00 0.20 0.20 100 1005.5
20260905191504 9 0 0.0 0.0 0.00 0.20 0.20 100 1005.4
20260905191004 10 0 0.0 0.0 0.00 0.20 0.20 100 1005.4
20260905190504 10 0 0.0 0.0 0.00 0.20 0.20 100 1005.4
20260905190004 10 0 0.0 0.0 0.00 0.20 0.20 100 1005.3
20260905185504 10 0 0.0 0.0 0.00 0.20 0.20 100 1005.4
20260905185004 10 0 0.0 0.0 0.00 0.20 0.20 100 1005.3
20260905184504 10 0 0.0 0.0 0.00 0.20 0.20 100 1005.2
20260905184004 10 0 0.0 0.0 0.00 0.20 0.20 100 1005.1
20260905183504 10 0 0.0 0.0 0.00 0.20 0.20 100 1005.0
20260905183004 10 0 0.0 0.0 0.00 0.20 0.20 100 1005.0
20260905182504 10 0 0.0 0.0 0.00 0.20 0.20 100 1004.9
20260905182004 10 0 0.0 0.0 0.00 0.20 0.20 100 1005.0
20260905181504 11 0 0.0 0.0 0.00 0.20 0.20 100 1005.0
20260905181004 11 0 0.0 0.0 0.00 0.20 0.20 100 1004.9
20260905180504 11 0 0.0 0.0 0.00 0.20 0.20 100 1004.8
20260905180004 11 306 0.0 3.2 0.00 0.20 0.20 100 1004.9
20260905175504 11 306 0.0 3.2 0.00 0.20 0.20 100 1004.8
20260905175004 11 306 0.0 3.2 0.05 0.20 0.20 100 1004.7
20260905174504 11 306 0.0 1.6 0.08 0.20 0.20 100 1004.6
20260905174004 12 306 0.0 1.6 0.13 0.20 0.20 100 1004.6
20260905173525 12 0 0.0 0.0 0.15 0.20 0.20 100 1004.5
20260905173025 12 0 0.0 0.0 0.15 0.20 0.20 100 1004.5
20260905172525 12 306 1.6 4.8 0.15 0.20 0.20 100 1004.4
20260905172004 12 306 1.6 4.8 0.15 0.20 0.20 100 1004.4
20260905171504 12 0 0.0 0.0 0.15 0.20 0.20 100 1004.2
20260905171004 12 0 0.0 0.0 0.15 0.20 0.20 100 1004.1
20260905170525 12 0 0.0 0.0 0.15 0.20 0.20 100 1004.0
20260905170004 12 0 0.0 0.0 0.15 0.20 0.20 100 1004.0
20260905165525 12 0 0.0 0.0 0.15 0.20 0.20 100 1004.2
20260905165004 12 306 0.0 1.6 0.13 0.15 0.15 100 1004.1
20260905164525 13 316 0.0 3.2 0.08 0.13 0.13 100 1004.3
20260905164025 13 304 1.6 4.8 0.05 0.08 0.08 100 1004.2
20260905163504 13 295 1.6 4.8 0.00 0.05 0.05 100 1004.2
20260905163004 14 0 0.0 0.0 0.00 0.05 0.05 100 1004.1
20260905162504 15 0 0.0 0.0 0.00 0.05 0.05 100 1003.8
20260905162025 15 271 0.0 1.6 0.00 0.05 0.05 100 1003.8
20260905161504 15 271 0.0 1.6 0.00 0.05 0.05 100 1003.6
20260905161004 15 271 0.0 1.6 0.00 0.05 0.05 100 1003.6
20260905160504 15 269 1.6 4.8 0.00 0.05 0.05 100 1003.6
20260905160004 15 277 1.6 4.8 0.00 0.05 0.05 100 1003.6
20260905155504 15 287 0.0 4.8 0.00 0.05 0.05 100 1003.6
20260905155004 15 247 0.0 1.6 0.00 0.05 0.05 100 1003.5
20260905154504 15 247 0.0 1.6 0.00 0.05 0.05 100 1003.4
20260905154003 16 247 0.0 1.6 0.00 0.05 0.05 100 1003.4
20260905153504 16 0 0.0 0.0 0.00 0.05 0.05 100 1003.3
20260905153004 16 247 0.0 1.6 0.00 0.05 0.05 100 1003.2
20260905152504 16 247 0.0 4.8 0.00 0.05 0.05 100 1003.1
20260905152004 16 247 1.6 6.4 0.00 0.05 0.05 100 1003.0
20260905151504 16 247 3.2 6.4 0.00 0.05 0.05 100 1003.1
20260905151004 16 247 1.6 6.4 0.00 0.05 0.05 100 1003.1
20260905150504 16 247 1.6 6.4 0.00 0.08 0.05 100 1002.9
20260905150025 16 247 1.6 6.4 0.03 0.13 0.05 100 1002.9
20260905145504 16 247 1.6 6.4 0.03 0.20 0.05 100 1002.8
20260905145004 16 247 0.0 6.4 0.03 0.20 0.05 100 1002.7
20260905144524 16 0 0.0 0.0 0.03 0.23 0.05 100 1002.8
20260905144003 16 0 0.0 0.0 0.03 0.25 0.05 100 1002.8
20260905143504 16 247 0.0 3.2 0.03 0.25 0.05 100 1002.7
20260905143004 16 247 0.0 4.8 0.03 0.25 0.05 100 1002.7
20260905142504 16 247 0.0 4.8 0.03 0.25 0.05 100 1002.7
20260905142004 16 247 0.0 6.4 0.03 0.25 0.05 100 1002.7
20260905141504 16 247 0.0 6.4 0.03 0.25 0.05 100 1002.6
20260905141004 16 247 0.0 3.2 0.03 0.25 0.05 100 1002.6
20260905140503 16 247 0.0 1.6 0.03 0.25 0.05 100 1002.5
20260905140004 16 247 0.0 1.6 0.00 0.23 0.03 100 1002.6
20260905135503 16 247 0.0 1.6 0.00 0.25 0.03 100 1002.6
20260905135003 16 247 0.0 3.2 0.00 0.25 0.03 100 1002.6
20260905134504 16 247 0.0 3.2 0.00 0.25 0.03 100 1002.5
20260905134003 16 247 0.0 1.6 0.00 0.25 0.03 100 1002.5
20260905133503 16 247 0.0 1.6 0.00 0.25 0.03 100 1002.4
20260905133024 16 247 0.0 1.6 0.00 0.25 0.03 100 1002.4
20260905132504 17 246 1.6 6.4 0.00 0.25 0.03 100 1002.4
20260905132003 17 250 3.2 14.5 0.00 0.28 0.03 100 1002.3
20260905131504 17 255 4.8 14.5 0.00 0.30 0.03 100 1002.2
20260905131003 17 259 3.2 12.9 0.00 0.36 0.03 100 1002.3
20260905130503 17 257 3.2 8.0 0.00 0.38 0.03 100 1002.1
20260905130004 17 254 3.2 8.0 0.00 0.38 0.03 100 1002.1
20260905125525 16 252 3.2 8.0 0.00 0.38 0.03 100 1002.1
20260905125004 16 248 3.2 6.4 0.00 0.38 0.03 100 1002.0
20260905124503 16 246 1.6 6.4 0.00 0.38 0.03 100 1002.1
20260905124025 16 246 1.6 6.4 0.00 0.38 0.03 100 1002.1
20260905123524 15 246 3.2 6.4 0.00 0.38 0.03 100 1002.0
20260905123004 15 252 3.2 11.3 0.00 0.38 0.03 100 1001.9
20260905122503 15 264 3.2 11.3 0.00 0.38 0.03 100 1001.9
20260905122004 15 290 1.6 4.8 0.00 0.38 0.03 100 1001.9
20260905121503 15 294 0.0 3.2 0.00 0.38 0.03 100 1001.9
20260905121003 15 295 1.6 6.4 0.00 0.38 0.03 100 1001.9
20260905120504 15 300 1.6 6.4 0.00 0.38 0.03 100 1001.8
20260905120004 15 309 0.0 4.8 0.00 0.38 0.03 100 1001.8
20260905115524 15 284 0.0 3.2 0.00 0.38 0.03 100 1001.8
20260905115003 15 249 0.0 3.2 0.00 0.38 0.03 100 1001.7
20260905114504 15 245 1.6 6.4 0.00 0.38 0.03 100 1001.8
20260905114025 15 247 1.6 8.0 0.00 0.38 0.03 100 1001.7
20260905113503 15 260 1.6 8.0 0.00 0.38 0.03 100 1001.6
20260905113003 15 275 1.6 4.8 0.00 0.38 0.03 100 1001.7
20260905112504 15 289 1.6 6.4 0.00 0.38 0.03 100 1001.6
20260905112003 15 288 1.6 6.4 0.00 0.38 0.03 100 1001.6
20260905111503 15 263 0.0 4.8 0.00 0.38 0.03 100 1001.5
20260905111003 15 248 1.6 4.8 0.00 0.38 0.03 100 1001.5
20260905110503 15 248 1.6 4.8 0.00 0.38 0.03 100 1001.5
20260905110003 15 248 1.6 4.8 0.00 0.38 0.03 100 1001.4
20260905105524 15 248 1.6 6.4 0.00 0.38 0.03 100 1001.4
20260905105003 15 250 3.2 6.4 0.00 0.38 0.03 100 1001.2
20260905104524 15 252 3.2 6.4 0.00 0.38 0.03 100 1001.2
20260905104003 15 252 3.2 6.4 0.00 0.38 0.03 100 1001.1
20260905103503 15 252 3.2 8.0 0.00 0.38 0.03 100 1001.1
20260905103003 15 252 3.2 8.0 0.00 0.38 0.03 100 1001.1
20260905102503 15 251 1.6 8.0 0.00 0.38 0.03 100 1001.0
20260905102003 15 251 1.6 8.0 0.00 0.38 0.03 100 1001.0
20260905101503 15 251 1.6 6.4 0.00 0.38 0.03 100 1001.0
20260905101024 15 253 1.6 6.4 0.00 0.38 0.03 100 1000.9
20260905100503 15 255 3.2 9.7 0.00 0.38 0.03 100 1000.8
20260905100003 15 255 3.2 9.7 0.00 0.38 0.03 100 1000.8
20260905095524 15 257 3.2 6.4 0.00 0.38 0.03 100 1000.7
20260905095003 15 265 1.6 9.7 0.00 0.38 0.03 100 1000.7
20260905094503 15 275 1.6 6.4 0.00 0.38 0.03 100 1000.7
20260905094003 15 275 1.6 4.8 0.00 0.38 0.03 100 1000.6
20260905093503 15 276 0.0 4.8 0.00 0.38 0.03 100 1000.6
20260905093003 15 276 0.0 3.2 0.00 0.38 0.03 100 1000.6
20260905092503 15 290 0.0 4.8 0.00 0.38 0.03 100 1000.5
20260905092003 14 280 1.6 4.8 0.00 0.38 0.03 100 1000.5
20260905091503 14 249 1.6 3.2 0.00 0.38 0.03 100 1000.5